GSAT 12

导读

GSAT-12(印度地球同步卫星12号)是印度空间研究组织研制的地球静止轨道通信卫星,于2011年7月15日成功发射,用于替代老卫星INSAT-3B。卫星发射质量1410千克,基于I-1k卫星平台,设计寿命7年,采用三轴姿态控制,搭载12路扩展C频段转发器和2副天线,定点于东经83°地球同步轨道,主要服务印度区域通信传输需求,强化印度自主通信卫星覆盖能力。

Basic Information
目录编号:
37746
目录名称:
GSAT 12
国际标识:
2011-034A
轨道中心:
EARTH
卫星名称:
GSAT 12
卫星全名:
--
卫星状态:
在轨 (已飞行5451 天)
发射日期:
2011-07-15 UTC
国别 :
印度 (IN)
星等 :
--
Orbit Information
数据来源 国际轨道数据 AOE轨道数据
星历时间 2026-06-16T23:23:17+0800
21小时前
查看轨道信息
2026-06-17T02:00:00+0800
19小时前
查看轨道信息
半长轴 42564.693km 42564.664km
偏心率 0.000469 0.0004675
轨道倾角 5.300° 5.300°
近地点辐角 170.022° 170.250°
升交点赤经 76.068° 76.070°
平近点角 28.974° 67.478°
近地点 36166.593km 36166.628km
远地点 36206.519km 36206.426km
周期 1456.579分钟 1456.577分钟
每日圈数 0.988618 0.988619
Detailed Information
使用方式:
暂无
2D Orbit Map
3D Orbit Map
Orbit Altitude Analysis Chart
Orbit Inclination Analysis Chart
Orbit Comprehensive Analysis Chart
View Comprehensive Chart